Regional Weather Roundup
Issued by NWS

Home | Current Version | Previous Version | Text Only | Print | Product List | Glossary Off
Versions: 1 2 3 4 5 6 7 8 9 10 11 12 13 14 15 16 17 18 19 20 21 22 23 24 25 26 27 28 29 30 31 32 33 34 35 36 37 38 39 40 41 42 43 44 45 46 47 48 49 50

000
ASUS43 KLOT 021912
RWRIL

ILLINOIS REGIONAL WEATHER ROUNDUP
NATIONAL WEATHER SERVICE CHICAGO/ROMEOVILLE IL
200 PM CDT THU JUL 02 2015

NOTE: "FAIR" INDICATES FEW OR NO CLOUDS BELOW 12,000 FEET WITH NO
SIGNIFICANT WEATHER AND/OR OBSTRUCTIONS TO VISIBILITY.

* THESE STATIONS ARE NOT UNDER NWS QUALITY CONTROL. THEY ALSO MAY NOT
  REPORT WEATHER SUCH AS PRECIPITATION OR FOG.

ILZ001-002-007-009-015-016-024-022000-
NORTHWEST ILLINOIS

CITY           SKY/WX    TMP DP  RH WIND       PRES   REMARKS
MOLINE         MOSUNNY   72  54  53 E15       29.98F
STERLING*      PTSUNNY   70  57  64 E9G16     30.00S
SAVANNA*       CLOUDY    70  51  51 NE9       30.00
$$

ILZ003-004-008-010-011-017-018-022000-
NORTH CENTRAL ILLINOIS

CITY           SKY/WX    TMP DP  RH WIND       PRES   REMARKS
ROCKFORD       CLOUDY    71  54  54 NE15      30.01F
FREEPORT*      PTSUNNY   68  51  54 NE7       30.03F
ROCHELLE*      CLOUDY    68  56  66 NE12      30.01
DE KALB*       PTSUNNY   66  55  66 NE10G16   30.01
PERU*          PTSUNNY   70  55  60 NE12      29.99
$$

ILZ005-006-012>014-019>023-022000-
NORTHEAST ILLINOIS

CITY           SKY/WX    TMP DP  RH WIND       PRES   REMARKS
CHICAGO-OHARE  PTSUNNY   67  53  61 NE13      30.00S
CHICAGO-MIDWAY PTSUNNY   70  56  61 NE15      29.99S
AURORA         PTSUNNY   71  55  56 NE13G18   29.99F
LANSING*       SUNNY     68  54  59 N15       29.98
JOLIET*        PTSUNNY   71  57  60 NE14      29.97
WAUKEGAN       SUNNY     64  53  67 NE9       30.01F
DUPAGE AIRPORT PTSUNNY   70  55  59 NE15G22   29.99S
KANKAKEE*      PTSUNNY   73  58  58 E12       29.96
WHEELING       MOSUNNY   66  52  60 NE9G18    30.03S
MORRIS*        CLOUDY    71  57  60 NE6       29.95
ROMEOVILLE*    PTSUNNY   71  55  57 NE15      29.98
NORTHERLY ISL    N/A     62  55  77 MISG        N/A
$$

LMZ740>746-022000-
SOUTHERN LAKE MICHIGAN

STATION/POSITION SKY/WX   TEMP    WIND        PRES    VSBY  WAVE
                          AIR SEA DIR/SP/G                  HT/PER
                          (F)     (DEG/KT/KT) (MB)    (MI)  (FT/S)
HARRISON CRIB              57      10/ 16/ 18   N/A
BURNHAM HARBOR             62     340/ 12/ 16   N/A
CALUMET HARBOR             61     360/ 14/ 19   N/A
BURNS HARBOR               62      20/ 16/ 18 1015.9F
MICHIGAN CITY              61     360/ 16/ 18   N/A
MICHIGAN CITY 6N           62 65   20/ 14/ 19   N/A           4/ 4
ST. JOSEPH                 62 63                N/A           3/ 4
$$

ILZ025>027-034>036-040-047-049-050-058-095>099-022000-
WEST-CENTRAL ILLINOIS

CITY           SKY/WX    TMP DP  RH WIND       PRES   REMARKS
QUINCY         CLOUDY    71  58  63 NE9       29.94F
GALESBURG*     PTSUNNY   68  57  67 NE12      29.97
MACOMB*        CLOUDY    68  60  74 E10       29.99
JACKSONVILLE*  CLOUDY    71  61  71 NE9       29.94
PITTSFIELD*    CLOUDY    72  60  66 NE6       29.95S
$$

ILZ028>032-037-038-041>044-048-051>054-059>061-022000-
CENTRAL ILLINOIS

CITY           SKY/WX    TMP DP  RH WIND       PRES   REMARKS
PONTIAC        PTSUNNY   74  61  62 NE13      29.95
BLOOMINGTON    PTSUNNY   75  60  59 E17       29.95F
DECATUR        PTSUNNY   73  59  61 NE7       29.93S
PEORIA         PTSUNNY   74  58  57 E10G21    29.96S
LACON*         MOSUNNY   71  58  63 NE6       29.96
LINCOLN*       CLOUDY    73  60  62 NE6       29.95
SPRINGFIELD    CLOUDY    73  60  63 N12       29.95R
TAYLORVILLE    CLOUDY    72  61  68 N9        29.93
$$

ILZ033-039-045-046-055>057-062-063-022000-
EAST-CENTRAL ILLINOIS

CITY           SKY/WX    TMP DP  RH WIND       PRES   REMARKS
CHAMPAIGN      MOSUNNY   74  60  61 NE9       29.92F
DANVILLE*      MOSUNNY   74  63  67 NE9       29.90
RANTOUL*       MOSUNNY   75  59  57 NE10      29.92
MATTOON        PTSUNNY   74  64  71 N8        29.89F
PARIS*         MOSUNNY   75  65  71 N6        29.91
$$

ILZ079-100>102-022000-
SOUTHWEST ILLINOIS

CITY           SKY/WX    TMP DP  RH WIND       PRES   REMARKS
ALTON          PTSUNNY   75  70  83 NE9       29.91S
BELLEVILLE     PTSUNNY   72  67  85 VRB5      29.89S
CAHOKIA*       CLOUDY    74  64  71 N8        29.90F
SPARTA*        CLOUDY    71  67  86 N7        29.89
$$

ILZ064>066-069>071-074>076-080>082-084>086-088>090-092>094-022000-
SOUTH-CENTRAL ILLINOIS

CITY           SKY/WX    TMP DP  RH WIND       PRES   REMARKS
CARBONDALE     CLOUDY    77  71  82 N7        29.86S
CAIRO*         CLOUDY    83  72  68 W7        29.84  HX  88
EFFINGHAM*     CLOUDY    74  62  65 N6        29.91
MT. VERNON     CLOUDY    66  63  88 N6        29.89S
CENTRALIA*     CLOUDY    72  64  77 NE3       29.89
SALEM*         CLOUDY    75  66  73 NE7       29.88
METROPOLIS*    CLOUDY    81  76  84 W3        29.85  HX  86
$$

ILZ067-068-072-073-078-083-087-091-022000-
SOUTHEAST ILLINOIS

CITY           SKY/WX    TMP DP  RH WIND       PRES   REMARKS
LAWRENCEVILLE  LGT RAIN  73  67  81 N6        29.88F
FLORA*         CLOUDY    70  64  83 N7        29.89
FAIRFIELD*     RAIN      67  66  99 N6        29.87
HARRISBURG*    MOSUNNY   82  73  74 NW5       29.85  HX  87
ROBINSON*      PTSUNNY   73  65  77 N8        29.89
CARMI*         CLOUDY    79  66  64 NE7       29.85  HX  81
$$

ABBREVIATIONS USED IN REMARKS
   TC - TEMPERATURE IN CELSIUS
  WCI - WIND CHILL INDEX
   HX - HEAT INDEX
  VSB - VISIBILITY
$$




USA.gov is the U.S. government's official web portal to all federal, state and local government web resources and services.